Flag for Canada Weather past 2 weeks in Resolute Bay, Nunavut Territory, Canada

Now
36 °F

Fog.


Feels Like: 36 °F
Forecast: 36 / 40 °F
Wind: No wind

Location: Resolute

Current Time: Jul 30, 2014 at 4:36:17 AM

Latest Report: Jul 30, 2014 at 4:00 AM


Visibility: 5 mi

Pressure: 30.10 "Hg

Humidity: 100%

Dew point: 36 °F

Location of Resolute BayLocation

Historic Weather in Resolute Bay — Graph

°F

Resolute Bay temperature yesterday

Maximum temperature yesterday: 43 °F (at 2:00 PM)
Minimum temperature yesterday: 36 °F (at 10:00 PM)
Average temperature yesterday: 39 °F

Past Weeks' High & Low Weather Summary

 TemperatureHumidityPressure
High50 °F (Jul 24, 8:00 PM)100% (Jul 15, 3:00 AM)30.19 "Hg (Jul 15, 3:00 AM)
Low32 °F (Jul 21, 9:00 PM)75% (Jul 23, 3:00 PM)29.33 "Hg (Jul 18, 2:00 PM)
Average39 °F94%29.78 "Hg
* Reported Jul 15 3:00 AM — Jul 30 3:00 AM, Resolute Bay, Weather by CustomWeather, © 2014

Note: Actual official high and low records may vary slightly from our data, if they occured in-between our weather recording intervals... More about our weather records

Advertising

Resolute Bay weather history for previous 24 hours

 ConditionsComfort  
Time TempWeatherWind HumidityBarometerVisibility
3:00 AM
Jul 30
34 °FFog.No wind100%30.09 "Hg1 mi
2:00 AM36 °FLight rain. Fog.No wind100%30.09 "Hg1 mi
1:54 AMN/ALight rain.No windN/AN/A1 mi
1:00 AM34 °FDrizzle. Fog.2 mph100%30.08 "Hg1 mi
12:45 AMN/ADrizzle.3 mphN/AN/A1 mi
12:00 AM36 °FFog.7 mph100%30.07 "Hg0 mi
11:00 PM
Jul 29
36 °FFog.8 mph100%30.06 "Hg1 mi
10:00 PM36 °FFog.8 mph100%30.06 "Hg1 mi
9:00 PM37 °FDrizzle. Fog.8 mph100%30.05 "Hg1 mi
8:00 PM37 °FFog.13 mph100%30.05 "Hg1 mi
7:00 PM39 °FDrizzle. Mostly cloudy.8 mph100%30.05 "Hg12 mi
6:00 PM41 °FDrizzle. More clouds than sun.8 mph100%30.04 "Hg12 mi
5:00 PM41 °FDrizzle. Low clouds.12 mph100%30.05 "Hg6 mi
4:00 PM43 °FLow clouds.9 mph93%30.04 "Hg15 mi
3:00 PM43 °FMostly cloudy.15 mph93%30.04 "Hg15 mi
2:00 PM43 °FDrizzle. Mostly cloudy.9 mph93%30.04 "Hg15 mi
1:00 PM41 °FOvercast.13 mph87%30.05 "Hg15 mi
12:00 PM41 °FPartly sunny.15 mph87%30.05 "Hg15 mi
11:00 AM41 °FPartly sunny.3 mph87%30.06 "Hg15 mi
10:00 AM39 °FBroken clouds.5 mph93%30.07 "Hg15 mi
9:00 AM37 °FLow clouds.3 mph93%30.09 "Hg15 mi
8:00 AM39 °FMostly cloudy.9 mph87%30.09 "Hg15 mi
7:00 AM39 °FMostly cloudy.9 mph87%30.10 "Hg15 mi
6:00 AM37 °FDrizzle. Fog.7 mph100%30.11 "Hg10 mi
5:00 AM37 °FFog.6 mph93%30.12 "Hg15 mi
4:00 AM39 °FDrizzle. Mostly cloudy.7 mph93%30.12 "Hg15 mi
Weather by CustomWeather, © 2014

See weather overviewHow to use our weather pages